map of CAP home
Great Circle Mapper logo
CAP - Airport
Location
City:  Cap-Ha´tien, Haiti
Name:Cap-Ha´tien International Airport
ICAO:MTCH
IATA:CAP

Details
Type:Airport (Aerodrome, Airfield)
Use:International (customs port of entry)
Latitude:19░43'59"N (19.732989)
Longitude:72░11'41"W (-72.194738)
Datum:WGS 1984
Elevation:10 ft (3 m)
Variation:10.28░W (WMM2015 magnetic declination)
-0.08░ annual change
Runways:1
Longest:4886 × 131 ft (1489 × 40 m), paved

Time
Time Zone:UTC-5
Local Time:

Weather
METAR:MTCH 262000Z 04008KT 9000 SCT030CB BKN060 30/23 Q1011 A2987 RMK/CB/ALLDS

Related Locations
Nearby:
Farthest:EXM: 12009 mi / 19326 km
Exmouth Gulf, WA, AU

Find:

   beyond  
but within

Other Information
Maps:
NOTAMs:
Links:
Sources:

  
flag of Haiti   

Sectional Chart

Flight Planning
at skyvector.com

Satellite Image

Google Maps Satellite view

 

Copyright © 2004-2016 Karl L. Swartz. All rights reserved.
The Great Circle Mapper name and logo are trademarks of the Great Circle Mapper.
All other trademarks mentioned herein belong to their respective owners.
Please see credits for attibutions and further copyright information.

  Follow gcmap on Facebook Follow gcmap on Twitter Follow gcmap on Google+ GCmap on LinkedIn

hCard Microformat

Geo Microformat